{"data":{"norad_id":61600,"epoch":"2026-05-25T02:21:32.363136Z","epoch_age_seconds":59823,"freshness":"FRESH","line1":"1 61600U 24188G   26145.09829124  .00000005  00000+0 -21358-4 0  9997","line2":"2 61600  87.8909  25.6790 0001050  94.4245 265.7003 13.11418431 81446","mean_motion":13.11418431,"eccentricity":0.000105,"inclination_deg":87.8909,"raan_deg":25.679,"arg_perigee_deg":94.4245,"mean_anomaly_deg":265.7003,"bstar":-2.1358e-5,"rev_number":8144,"period_min":109.80477061787,"perigee_km":1216.8793999019,"apogee_km":1218.4745208336,"semimajor_km":7595.8139603677,"source":"CELESTRAK","updated_at":"2026-05-25T13:38:22.749175Z"}}